Wind_Speed
60 60 63 65 64 63 62 61 62 63 59 57 58 57 56 52 48 46 45 46 46 43 39 41 38 40 39 39 38 38 38 35 34 33 34 31 31 30 25 22 20 18 14
67 67 65 63 63 65 64 62 60 59 58 55 53 51 48 46 43 41 44 41 40 38 39 41 39 39 39 40 38 38 37 35 33 35 35 32 29 27 22 21 20 17 12
68 72 72 70 67 64 63 63 60 59 55 53 52 50 47 45 43 41 39 40 38 38 36 37 38 38 37 37 38 35 34 34 34 35 31 27 26 24 23 22 19 16 14
69 70 74 75 74 71 66 62 61 59 56 52 49 47 47 46 44 41 38 38 36 34 35 35 36 36 35 36 34 35 33 34 34 33 28 27 25 22 23 18 16 14 12
59 60 67 73 78 77 72 66 60 58 54 52 49 47 44 42 41 39 37 35 34 34 33 34 34 33 34 35 35 32 34 34 32 29 25 24 23 22 18 13 11 10 9
57 54 55 64 76 81 78 71 64 57 54 51 50 47 43 38 35 33 33 33 33 33 33 33 32 32 33 34 33 32 33 31 29 27 26 23 23 19 11 10 10 10 10
54 48 41 44 56 69 82 77 68 60 53 50 49 47 41 37 34 30 32 31 31 31 31 30 32 31 33 33 32 32 31 31 30 29 27 24 21 16 12 11 11 12 15
50 50 47 43 42 53 71 79 70 61 55 50 49 46 41 37 33 31 30 29 29 30 28 30 31 31 31 31 31 30 30 30 31 27 24 24 22 18 15 13 13 13 17
46 50 49 48 46 48 58 77 70 62 55 52 50 44 40 35 32 28 30 26 28 27 28 28 31 30 30 29 29 30 30 29 27 25 21 13 16 17 13 14 14 14 14
48 50 49 47 46 46 51 69 68 61 54 51 46 44 40 34 28 28 27 26 25 27 26 29 27 28 27 27 27 26 22 21 21 20 17 17 17 14 12 13 14 15 9
49 52 45 45 44 44 48 65 66 58 51 49 45 42 36 30 29 27 24 26 24 25 26 25 25 24 24 24 20 19 17 14 12 16 17 17 16 13 11 11 8 7 8
34 29 47 41 43 43 50 61 60 55 51 46 44 39 32 29 28 25 25 24 23 24 22 22 21 21 20 16 17 15 16 15 15 13 10 12 13 11 10 10 10 9 9
27 30 35 37 37 45 51 57 55 50 46 46 41 33 31 27 26 25 23 23 22 20 19 18 18 17 12 11 9 11 11 5 9 10 11 11 11 12 11 11 11 11 12
22 32 34 35 44 49 51 52 47 43 43 39 34 30 28 27 28 28 26 23 20 18 16 15 14 10 9 6 7 3 7 9 8 9 10 8 13 13 12 11 10 10 11
33 37 42 46 49 50 48 44 41 41 35 28 28 26 25 24 29 24 22 20 18 16 13 12 10 8 6 6 7 4 5 7 8 9 8 8 9 10 10 10 8 8 9
41 45 49 46 46 44 42 43 41 36 32 31 31 29 28 22 20 21 20 17 16 13 12 10 9 8 7 6 7 7 8 8 9 9 9 8 7 10 11 11 10 10 10
49 45 37 42 39 39 36 33 30 31 32 30 29 26 24 22 22 21 18 17 15 12 11 10 10 12 10 8 9 9 10 10 10 10 10 11 10 9 9 9 10 10 11
41 39 38 39 37 35 33 32 32 29 30 32 31 26 23 23 22 19 18 16 13 12 11 10 10 12 12 11 10 10 10 10 9 9 9 10 9 9 9 9 9 9 10
41 42 38 37 37 35 33 33 29 29 28 26 26 26 25 22 20 19 17 15 13 12 11 12 11 11 12 11 10 9 8 8 9 9 9 9 9 9 9 8 8 9 9
34 30 29 32 34 30 33 29 28 31 28 28 28 26 23 22 22 19 17 14 13 12 12 12 12 12 11 11 10 9 9 9 9 9 9 9 10 11 11 11 10 10 10
31 34 35 27 34 26 31 31 28 26 25 24 24 24 23 22 21 18 15 13 13 14 12 12 11 11 11 11 10 9 8 8 8 9 11 12 12 12 13 13 12 12 11
26 31 28 26 27 26 26 25 25 24 23 23 23 23 22 22 18 17 15 14 12 13 12 12 11 10 10 10 9 7 6 6 6 6 6 6 8 10 10 10 10 10 12
28 26 26 26 25 25 24 23 22 22 23 24 24 23 22 20 17 16 16 13 13 14 13 12 10 10 10 10 9 7 6 7 7 5 5 6 5 6 6 7 9 9 10
26 25 25 24 22 21 21 21 20 22 26 25 23 21 20 18 16 16 18 14 12 13 12 11 10 10 9 11 9 7 7 8 7 6 5 6 6 8 10 12 12 14 14
22 24 23 20 21 25 23 18 15 21 27 22 21 19 17 16 14 15 17 15 13 12 12 12 11 11 10 10 9 8 8 8 7 8 9 10 11 11 11 12 14 17 18
19 21 24 23 31 25 20 17 17 20 22 21 19 17 17 14 14 14 16 16 15 13 12 12 12 12 11 10 9 8 8 8 8 9 10 11 13 15 16 18 19 22 25
Wind_Direction
249 245 246 246 245 245 245 245 245 246 250 253 256 258 263 266 267 268 267 270 273 275 278 278 280 284 289 293 295 291 291 293 291 299 298 303 307 306 306 300 300 299 295
251 250 247 245 245 246 245 244 245 247 247 248 251 253 257 259 263 266 267 270 267 273 275 280 282 281 285 292 291 286 289 289 292 295 298 296 301 301 302 296 297 291 286
251 249 247 246 245 244 244 244 244 244 245 245 246 248 252 254 257 259 265 265 267 274 280 280 278 280 286 288 287 286 287 288 292 296 296 296 295 299 296 291 293 279 283
257 251 245 242 242 242 242 241 241 241 241 241 243 246 248 250 253 256 261 264 266 273 276 276 278 281 286 285 284 284 286 288 291 291 289 290 291 291 292 284 285 278 275
260 258 249 241 239 238 238 239 240 240 240 240 241 243 246 248 250 253 256 260 267 271 275 276 279 284 283 283 282 283 286 289 291 285 281 286 284 291 281 275 268 269 220
256 256 247 241 236 233 234 232 234 236 237 237 239 242 245 247 248 250 257 263 268 271 274 275 282 281 281 279 282 286 288 288 286 286 286 279 284 278 246 258 261 257 238
246 242 241 242 235 228 225 227 227 230 232 233 235 238 242 245 247 252 259 264 269 272 273 278 279 279 277 280 283 283 284 284 286 286 273 271 272 249 244 239 249 251 239
241 239 240 240 243 234 221 217 220 222 227 227 229 233 236 240 246 251 257 262 267 270 274 277 276 276 278 281 283 282 282 280 279 272 270 256 243 226 235 240 243 251 252
236 239 239 242 248 238 222 209 212 215 221 223 225 228 232 238 242 247 254 259 264 269 272 272 272 278 280 283 283 283 279 274 267 262 260 259 233 227 237 246 255 244 241
236 239 239 233 235 231 220 202 204 210 216 221 221 224 229 236 240 241 249 257 264 266 269 270 275 278 282 285 285 283 274 270 262 254 242 234 226 217 241 256 255 239 211
245 240 229 222 224 221 208 193 197 205 210 216 217 221 226 231 232 236 246 256 257 260 266 270 276 281 285 285 279 271 267 270 246 222 246 222 210 218 230 245 251 209 211
251 229 214 214 209 210 190 186 191 200 206 208 214 218 221 223 228 234 245 250 249 258 263 270 278 281 283 272 269 262 278 267 233 234 234 195 205 215 232 239 240 234 235
195 190 191 191 192 185 174 181 189 197 201 206 213 213 218 220 224 231 238 240 253 252 260 271 278 278 272 268 263 264 237 201 184 185 194 195 202 209 224 226 224 219 225
181 171 170 174 171 163 170 179 187 192 201 204 207 212 213 222 226 214 230 241 239 248 257 266 270 262 278 257 246 187 140 185 177 204 192 209 203 218 215 215 218 218 226
157 154 154 155 156 159 167 174 182 190 195 201 206 207 212 221 223 221 221 223 234 241 251 261 246 250 267 240 207 200 184 183 188 190 190 194 203 207 207 212 217 230 240
144 149 146 149 156 162 169 175 181 184 191 197 194 198 205 217 204 207 209 217 227 233 248 244 222 225 230 223 212 211 209 208 207 209 210 208 206 207 211 218 231 245 255
143 157 149 150 158 165 169 175 184 188 187 187 188 198 202 203 201 201 206 214 219 229 239 230 218 213 215 214 219 217 212 213 211 217 216 217 218 215 222 228 240 257 265
128 151 150 160 162 167 171 175 181 184 189 196 189 196 201 198 199 199 203 211 216 226 227 223 216 216 220 219 222 221 216 217 217 218 222 226 227 231 236 244 253 264 273
140 150 155 163 165 170 177 185 183 178 172 178 187 193 194 194 195 194 202 205 214 218 216 215 213 219 219 217 219 218 222 225 229 232 235 238 241 242 239 239 254 264 270
141 152 164 166 167 180 177 168 171 173 180 182 186 187 190 190 190 195 198 205 207 211 212 211 212 216 218 221 222 222 223 227 232 236 238 239 242 245 246 250 259 280 279
157 150 140 159 156 161 182 175 179 181 180 184 186 189 189 190 191 194 199 204 208 207 210 205 210 212 214 217 220 226 228 234 241 245 248 250 252 254 259 266 265 280 274
140 146 154 159 158 161 167 176 177 177 178 183 188 186 188 188 193 197 199 199 204 203 201 199 203 202 210 211 212 216 218 234 242 247 254 251 247 253 259 264 267 271 267
149 151 159 164 166 168 173 177 180 183 187 188 185 184 186 189 196 196 195 190 198 197 195 198 196 202 206 209 200 205 237 241 235 234 244 243 239 248 267 272 282 288 289
156 160 165 166 167 168 167 173 178 185 188 182 183 182 183 188 194 199 193 191 198 198 200 198 195 197 203 208 212 228 226 224 229 237 246 269 271 270 270 272 270 272 275
155 164 168 170 166 160 160 163 170 176 180 178 177 180 184 188 194 193 191 196 198 195 201 200 201 206 213 218 220 228 228 227 239 260 274 279 279 281 285 283 282 283 286
170 166 165 172 162 167 168 169 166 163 165 169 175 183 181 182 182 182 185 184 181 184 190 198 204 208 211 216 226 238 244 253 260 263 266 269 272 275 278 281 285 288 292
Height
5680 5685 5688 5695 5702 5709 5716 5724 5731 5739 5745 5750 5754 5759 5763 5766 5768 5772 5774 5774 5775 5775 5775 5774 5773 5770 5768 5766 5764 5762 5759 5756 5753 5749 5747 5744 5740 5737 5735 5732 5730 5728 5727
5661 5667 5673 5679 5685 5692 5700 5708 5717 5724 5732 5738 5742 5748 5753 5756 5759 5762 5765 5765 5768 5767 5766 5764 5764 5762 5760 5758 5757 5755 5752 5749 5746 5744 5740 5738 5735 5733 5731 5729 5727 5725 5725
5643 5647 5655 5663 5669 5677 5685 5694 5703 5711 5719 5726 5733 5738 5743 5748 5752 5755 5758 5758 5759 5757 5756 5756 5755 5753 5753 5750 5749 5747 5744 5742 5739 5737 5734 5731 5730 5728 5726 5725 5723 5722 5721
5618 5625 5636 5646 5652 5661 5668 5679 5689 5698 5707 5715 5722 5729 5734 5740 5744 5747 5748 5749 5749 5748 5748 5748 5746 5745 5744 5743 5741 5739 5737 5734 5732 5730 5728 5725 5724 5723 5722 5721 5720 5719 5718
5593 5599 5608 5620 5629 5640 5653 5663 5674 5685 5694 5703 5712 5719 5726 5731 5735 5738 5739 5740 5740 5740 5740 5739 5738 5737 5736 5735 5733 5732 5729 5727 5725 5722 5721 5720 5719 5718 5718 5718 5717 5717 5716
5578 5582 5588 5594 5603 5617 5633 5648 5661 5673 5683 5693 5702 5710 5716 5721 5726 5728 5729 5730 5731 5732 5732 5731 5730 5730 5729 5728 5725 5724 5721 5719 5718 5716 5715 5715 5715 5714 5714 5715 5715 5715 5715
5562 5568 5574 5578 5584 5593 5610 5629 5647 5662 5674 5684 5692 5700 5706 5711 5716 5720 5720 5722 5723 5724 5723 5723 5722 5723 5721 5719 5718 5716 5714 5712 5710 5708 5708 5709 5707 5710 5710 5711 5711 5713 5713
5546 5554 5561 5566 5571 5579 5589 5613 5635 5651 5663 5674 5682 5690 5696 5701 5707 5711 5712 5714 5715 5715 5716 5717 5716 5715 5713 5712 5710 5708 5706 5704 5703 5702 5702 5702 5701 5705 5706 5708 5708 5710 5710
5531 5538 5546 5553 5560 5567 5575 5598 5622 5639 5652 5662 5671 5680 5687 5694 5699 5703 5704 5707 5708 5709 5710 5710 5709 5707 5706 5704 5701 5698 5697 5696 5695 5696 5696 5696 5698 5702 5704 5705 5705 5707 5707
5516 5523 5530 5539 5547 5555 5565 5587 5611 5628 5643 5653 5663 5669 5678 5685 5690 5694 5696 5699 5703 5702 5703 5704 5702 5700 5698 5696 5693 5691 5690 5689 5689 5690 5692 5695 5697 5699 5701 5702 5702 5704 5705
5502 5506 5514 5525 5536 5548 5558 5578 5599 5619 5633 5644 5654 5662 5671 5679 5683 5687 5690 5693 5696 5696 5697 5697 5696 5694 5691 5689 5687 5686 5686 5685 5685 5683 5687 5691 5694 5697 5699 5700 5701 5702 5704
5485 5491 5502 5515 5526 5538 5551 5572 5593 5610 5623 5636 5645 5656 5665 5671 5676 5681 5685 5687 5689 5691 5691 5690 5689 5688 5686 5685 5683 5683 5682 5682 5684 5685 5687 5689 5693 5696 5698 5699 5700 5702 5703
5479 5487 5498 5509 5520 5534 5550 5570 5589 5605 5619 5630 5641 5652 5659 5665 5671 5676 5679 5682 5684 5686 5685 5685 5684 5683 5682 5681 5680 5679 5679 5681 5682 5684 5687 5689 5692 5694 5696 5697 5699 5700 5701
5482 5489 5498 5510 5523 5538 5556 5575 5591 5606 5617 5627 5638 5646 5653 5659 5665 5670 5674 5677 5679 5680 5681 5680 5680 5680 5679 5678 5678 5678 5677 5680 5682 5684 5684 5687 5690 5692 5694 5696 5697 5698 5699
5486 5494 5506 5518 5532 5546 5562 5578 5593 5605 5616 5627 5636 5643 5650 5656 5661 5664 5669 5672 5674 5675 5676 5677 5677 5678 5677 5678 5678 5678 5679 5680 5682 5684 5686 5688 5689 5691 5693 5694 5695 5696 5697
5495 5503 5513 5530 5542 5555 5568 5580 5591 5603 5614 5622 5630 5638 5646 5653 5657 5661 5665 5667 5669 5672 5673 5673 5674 5675 5676 5676 5677 5678 5679 5680 5681 5683 5685 5687 5688 5689 5690 5692 5693 5694 5695
5503 5513 5512 5539 5553 5563 5575 5586 5596 5605 5613 5621 5629 5637 5643 5648 5653 5658 5660 5664 5666 5669 5670 5670 5671 5673 5674 5676 5677 5678 5679 5680 5681 5682 5683 5684 5686 5687 5689 5690 5691 5692 5692
5508 5527 5537 5550 5560 5569 5579 5588 5597 5605 5613 5619 5627 5634 5640 5646 5650 5654 5658 5661 5664 5666 5667 5667 5669 5671 5673 5674 5676 5677 5678 5679 5680 5681 5682 5684 5685 5686 5687 5688 5688 5689 5689
5525 5534 5546 5556 5563 5573 5581 5589 5596 5604 5611 5618 5625 5632 5638 5643 5647 5652 5655 5658 5661 5662 5663 5665 5667 5669 5671 5673 5674 5676 5677 5678 5679 5680 5681 5682 5683 5685 5686 5686 5687 5687 5687
5537 5546 5554 5561 5569 5576 5579 5592 5600 5606 5612 5619 5626 5631 5636 5640 5645 5649 5652 5656 5658 5659 5661 5663 5665 5667 5670 5672 5674 5675 5676 5677 5678 5679 5680 5681 5682 5683 5684 5684 5684 5684 5684
5545 5550 5557 5568 5574 5581 5589 5596 5602 5608 5614 5620 5625 5630 5635 5639 5644 5647 5651 5653 5655 5657 5659 5662 5664 5666 5669 5671 5673 5675 5676 5677 5677 5678 5678 5679 5680 5680 5681 5682 5682 5681 5681
5554 5559 5566 5573 5579 5585 5592 5598 5604 5610 5615 5619 5624 5629 5634 5638 5642 5645 5649 5651 5653 5656 5658 5661 5663 5666 5668 5670 5672 5674 5675 5676 5677 5677 5677 5677 5678 5678 5679 5679 5679 5679 5678
5563 5568 5574 5579 5584 5589 5595 5600 5605 5610 5614 5619 5623 5628 5633 5637 5641 5644 5647 5650 5653 5656 5658 5660 5663 5665 5667 5669 5671 5673 5674 5674 5674 5675 5675 5676 5676 5677 5677 5677 5677 5677 5677
5570 5573 5578 5583 5587 5592 5596 5600 5604 5608 5613 5618 5624 5628 5632 5636 5639 5642 5646 5649 5652 5655 5657 5661 5663 5665 5667 5669 5670 5671 5672 5672 5673 5674 5675 5675 5675 5675 5675 5675 5674 5674 5673
5573 5577 5582 5585 5590 5595 5599 5603 5606 5609 5615 5620 5624 5628 5632 5636 5639 5641 5645 5648 5651 5654 5656 5659 5661 5664 5666 5667 5669 5670 5671 5672 5672 5673 5673 5673 5673 5673 5673 5672 5672 5671 5670
5575 5580 5583 5585 5591 5597 5601 5605 5608 5611 5616 5620 5625 5629 5632 5636 5639 5641 5644 5647 5650 5653 5656 5658 5660 5661 5663 5665 5666 5668 5669 5669 5670 5670 5670 5670 5671 5670 5669 5669 5668 5667 5665